This is the latest recevied weather packets stored in our database for station/object K9RJT. If no packets are shown the sender has not sent any weather packets the latest 10 day(s).
| Time | Temp. | Humidity | Pressure | Rain* | Wind** | Luminosity | Snow |
|---|---|---|---|---|---|---|---|
| 1777715588 | 10° C | 70% | 1010.4 hPa | 0 mm | - | 0 W/m² | - |
| 1777715286 | 10.56° C | 65% | 1010.2 hPa | 0 mm | - | 0 W/m² | - |
| 1777714983 | 10.56° C | 64% | 1010.6 hPa | 0 mm | - | 0 W/m² | - |
| 1777714680 | 10.56° C | 64% | 1010.6 hPa | 0 mm | - | 0 W/m² | - |
| 1777714379 | 10.56° C | 64% | 1010.3 hPa | 0 mm | - | 0 W/m² | - |
| 1777714076 | 10.56° C | 65% | 1010.4 hPa | 0 mm | - | 0 W/m² | - |
| 1777713774 | 11.11° C | 66% | 1010.4 hPa | 0 mm | - | 0 W/m² | - |
| 1777713470 | 11.11° C | 66% | 1010.4 hPa | 0 mm | - | 0 W/m² | - |
| 1777713167 | 11.11° C | 65% | 1010.2 hPa | 0 mm | - | 0 W/m² | - |
| 1777712864 | 11.67° C | 64% | 1010.8 hPa | 0 mm | - | 0 W/m² | - |
| 1777712561 | 11.67° C | 64% | 1010.3 hPa | 0 mm | - | 0 W/m² | - |
| 1777712258 | 12.22° C | 64% | 1010.5 hPa | 0 mm | - | 0 W/m² | - |
| 1777711954 | 11.67° C | 66% | 1010.8 hPa | 0 mm | - | 0 W/m² | - |
| 1777711652 | 12.22° C | 66% | 1010.6 hPa | 0 mm | - | 0 W/m² | - |
| 1777711352 | 12.22° C | 65% | 1011 hPa | 0 mm | - | 0 W/m² | - |
| 1777711049 | 12.78° C | 64% | 1011 hPa | 0 mm | - | 0 W/m² | - |
| 1777710745 | 12.78° C | 65% | 1010.9 hPa | 0 mm | - | 0 W/m² | - |
| 1777710443 | 12.78° C | 65% | 1010.8 hPa | 0 mm | - | 0 W/m² | - |
| 1777710139 | 13.33° C | 63% | 1011 hPa | 0 mm | - | 0 W/m² | - |
| 1777709837 | 13.33° C | 62% | 1010.9 hPa | 0 mm | - | 0 W/m² | - |
| 1777709535 | 13.89° C | 61% | 1010.9 hPa | 0 mm | - | 0 W/m² | - |
| 1777709232 | 13.89° C | 61% | 1010.9 hPa | 0 mm | - | 0 W/m² | - |
| 1777708929 | 14.44° C | 60% | 1010.5 hPa | 0 mm | - | 0 W/m² | - |
| 1777708626 | 15° C | 60% | 1011.1 hPa | 0 mm | - | 0 W/m² | - |
| 1777708324 | 15° C | 59% | 1010.9 hPa | 0 mm | - | 0 W/m² | - |
* Rain latest hour (hover to see other rain measurements)
** Current wind speed in m/s (hover to see current wind gust speed)